Regional Weather Roundup
Issued by NWS State College, PA

Home | Current Version | Previous Version | Text Only | Print | Product List | Glossary On
Versions: 1 2 3 4 5 6 7 8 9 10 11 12 13 14 15 16 17 18 19 20 21 22 23 24 25 26 27 28 29 30 31 32 33 34 35 36 37 38 39 40 41 42 43 44 45 46 47 48 49 50
000
ASUS41 KCTP 250403
RWRCTP

REGIONAL WEATHER ROUNDUP
NATIONAL WEATHER SERVICE STATE COLLEGE PA
1200 AM EDT THU MAY 25 2017

Note: "fair" indicates few or no clouds below 12,000 feet with no
significant weather and/or obstructions to visibility.

* = STATION THAT DOES NOT REPORT PRECIPITATION /E.G. RAIN...SNOW...ETC/
    THUNDER OR FOG.

PAZ002>004-007>009-013>016-020>023-029>032-250500-
WESTERN PENNSYLVANIA

CITY           SKY/WX    TMP DP  RH WIND       PRES   REMARKS
ERIE           LGT RAIN  61  54  77 SE14G23   29.55F
MEADVILLE      LGT RAIN  57  56  96 SE8       29.56S
FRANKLIN*      CLOUDY    55  52  88 SE14G22   29.58F
NEW CASTLE     CLOUDY    59  56  89 SE9G17    29.55F
BEAVER COUNTY  NOT AVBL
BUTLER*        CLOUDY    57  54  88 E16       29.55F
PITTSBURGH INT LGT RAIN  60  56  86 SE13      29.52F
PITTSBURGH     CLOUDY    59  53  80 SE10      29.53F
INDIANA*       CLOUDY    57  55  94 SE15G28   29.62F
LATROBE        CLOUDY    57  55  94 E14G30    29.55F
WASHINGTON CO* CLOUDY    57  54  88 SE14      29.53F
$$

PAZ004>006-010>012-017>019-024>028-033>037-041-042-045-046-049>053-250500-
CENTRAL PENNSYLVANIA

CITY           SKY/WX    TMP DP  RH WIND       PRES   REMARKS
BRADFORD       LGT RAIN  55  53  93 SE12      29.64F
DUBOIS         LGT RAIN  55  52  89 SE12      29.63R FOG
CLEARFIELD     RAIN      56  55  97 E6        29.66F FOG
JOHNSTOWN      LGT RAIN  54  53  97 SE8G16    29.63F
ALTOONA        LGT RAIN  58  55  90 SE7       29.67S
STATE COLLEGE  LGT RAIN  61  52  71 SE12G23   29.68S
WILLIAMSPORT   CLOUDY    64  50  60 SE12      29.70F
SELINSGROVE    CLOUDY    63  49  60 SE8       29.72F
FT INDIANTOWN  CLOUDY    61  50  65 E7        29.73F
CAPITAL CITY   NOT AVBL
HARRISBURG     CLOUDY    62  51  67 SE14      29.72R
YORK           CLOUDY    60  54  80 E12       29.70F
$$

PAZ038>040-043-044-047-048-054-055-060>062-067>071-250500-
EASTERN PENNSYLVANIA

CITY           SKY/WX    TMP DP  RH WIND       PRES   REMARKS
SCRANTON       CLOUDY    61  50  67 CALM      29.76F
MOUNT POCONO   CLOUDY    52  48  86 SE12G23   29.79F
ALLENTOWN      CLOUDY    60  49  66 SE12      29.79F
QUAKERTOWN*    NOT AVBL
READING        CLOUDY    61  52  72 E10G20    29.74F
LANCASTER      CLOUDY    61  53  75 SE14      29.73F
COATESVILLE    CLOUDY    57  52  82 E12G24    29.75F
POTTSTOWN      CLOUDY    57  50  77 VRB6      29.78F
BLUE BELL      CLOUDY    55  50  82 E8        29.79F
DOYLESTOWN     CLOUDY    56  32  40 CALM      29.78F
WILLOW GROVE   NOT AVBL
NORTH PHILA    CLOUDY    59  51  75 E8        29.80F
PHILADELPHIA   CLOUDY    59  51  75 E12       29.77F
$$



USA.gov is the U.S. government's official web portal to all federal, state and local government web resources and services.